When you browse on this site, cookies collect data to enhance your experience and personalize the content and advertising you see.
Visit our Privacy Policy to learn more. By continuing to use the site, you agree to this use of cookies and data.
  • In Germany
  • List of Countries
  • For 7 days
  • Water Temperature
  • Weather Map
  • Weather Widgets
  • user-avatar
    Login

    Hourly Weather Encamp

    Today, 31 May, Sunday

    Time Temperature Precipitation Wind Pressure Humidity
    00:00 +9°C° 0 mm 1 mps 622 mmHg 93%
    01:00 +9°C° 0 mm 1 mps 622 mmHg 92%
    02:00 +9°C° 0 mm 1 mps 622 mmHg 91%
    03:00 +9°C° 0 mm 1 mps 622 mmHg 90%
    04:00 +9°C° 0 mm 1 mps 622 mmHg 90%
    05:00 +10°C° 0 mm 1 mps 622 mmHg 89%
    06:00 +11°C° 0 mm 1 mps 623 mmHg 87%
    07:00 +13°C° 0 mm 1 mps 624 mmHg 76%
    08:00 +15°C° 0 mm 1 mps 624 mmHg 65%
    09:00 +18°C° 0 mm 1 mps 625 mmHg 54%
    10:00 +19°C° 0 mm 1 mps 625 mmHg 51%
    11:00 +19°C° 0 mm 2 mps 625 mmHg 49%
    12:00 +20°C° 0 mm 2 mps 626 mmHg 46%
    13:00 +19°C° 0.6 mm 2 mps 625 mmHg 55%
    14:00 +18°C° 0.6 mm 2 mps 625 mmHg 63%
    15:00 +18°C° 0.6 mm 1 mps 624 mmHg 71%
    16:00 +16°C° 0.9 mm 1 mps 624 mmHg 77%
    17:00 +15°C° 0.9 mm 1 mps 623 mmHg 82%
    18:00 +14°C° 0.9 mm 1 mps 623 mmHg 87%
    19:00 +13°C° 0.6 mm 1 mps 623 mmHg 90%
    20:00 +12°C° 0.6 mm 1 mps 623 mmHg 92%
    21:00 +11°C° 0.6 mm 1 mps 623 mmHg 94%
    22:00 +11°C° 0.3 mm 1 mps 623 mmHg 95%
    23:00 +11°C° 0.3 mm 1 mps 623 mmHg 95%

    Tomorrow, 1 June, Monday

    Time Temperature Precipitation Wind Pressure Humidity
    00:00 +11°C° 0.3 mm 1 mps 623 mmHg 95%
    01:00 +11°C° 0.1 mm 1 mps 623 mmHg 94%
    02:00 +11°C° 0.1 mm 1 mps 622 mmHg 93%
    03:00 +10°C° 0.1 mm 1 mps 622 mmHg 92%
    04:00 +11°C° 0.3 mm 1 mps 623 mmHg 92%
    05:00 +11°C° 0.3 mm 1 mps 623 mmHg 91%
    06:00 +11°C° 0.3 mm 1 mps 623 mmHg 91%
    07:00 +13°C° 0.2 mm 1 mps 624 mmHg 85%
    08:00 +14°C° 0.2 mm 1 mps 624 mmHg 79%
    09:00 +15°C° 0.2 mm 1 mps 625 mmHg 73%
    10:00 +15°C° 0.9 mm 1 mps 625 mmHg 78%
    11:00 +14°C° 0.9 mm 1 mps 625 mmHg 82%
    12:00 +14°C° 0.9 mm 1 mps 624 mmHg 86%
    13:00 +14°C° 1 mm 1 mps 624 mmHg 87%
    14:00 +14°C° 1 mm 1 mps 624 mmHg 88%
    15:00 +13°C° 1 mm 1 mps 624 mmHg 89%
    16:00 +13°C° 0.7 mm 1 mps 624 mmHg 90%
    17:00 +13°C° 0.7 mm 1 mps 624 mmHg 91%
    18:00 +13°C° 0.7 mm 1 mps 624 mmHg 92%
    19:00 +12°C° 0.3 mm 1 mps 624 mmHg 94%
    20:00 +12°C° 0.3 mm 1 mps 624 mmHg 95%
    21:00 +11°C° 0.3 mm 1 mps 624 mmHg 96%
    22:00 +11°C° 0.3 mm 1 mps 624 mmHg 96%
    23:00 +11°C° 0.3 mm 1 mps 624 mmHg 97%

    Day after tomorrow, 2 June, Tuesday

    Time Temperature Precipitation Wind Pressure Humidity
    00:00 +11°C° 0.3 mm 1 mps 623 mmHg 97%
    01:00 +10°C° 0 mm 1 mps 623 mmHg 96%
    02:00 +10°C° 0 mm 1 mps 623 mmHg 96%
    03:00 +9°C° 0 mm 1 mps 622 mmHg 96%
    04:00 +10°C° 0 mm 1 mps 623 mmHg 94%
    05:00 +11°C° 0 mm 1 mps 623 mmHg 91%
    06:00 +10°C° 0 mm 0 mps 623 mmHg 89%
    07:00 +13°C° 0.1 mm 1 mps 624 mmHg 84%
    08:00 +14°C° 0.1 mm 1 mps 625 mmHg 79%
    09:00 +16°C° 0.1 mm 1 mps 625 mmHg 73%
    10:00 +16°C° 0.4 mm 1 mps 625 mmHg 73%
    11:00 +18°C° 0.4 mm 1 mps 625 mmHg 73%
    12:00 +17°C° 0.4 mm 2 mps 625 mmHg 73%
    13:00 +16°C° 0.8 mm 1 mps 625 mmHg 76%
    14:00 +16°C° 0.8 mm 1 mps 624 mmHg 79%
    15:00 +16°C° 0.8 mm 1 mps 624 mmHg 82%
    16:00 +15°C° 0.6 mm 1 mps 624 mmHg 84%
    17:00 +15°C° 0.6 mm 1 mps 623 mmHg 86%
    18:00 +13°C° 0.6 mm 0 mps 623 mmHg 88%
    19:00 +12°C° 0.2 mm 0 mps 622 mmHg 90%
    20:00 +11°C° 0.2 mm 0 mps 622 mmHg 92%
    21:00 +10°C° 0.2 mm 0 mps 622 mmHg 94%
    22:00 +10°C° 0.1 mm 0 mps 622 mmHg 93%
    23:00 +9°C° 0.1 mm 0 mps 621 mmHg 93%

    3 June, Wednesday

    Time Temperature Precipitation Wind Pressure Humidity
    00:00 +10°C° 0.1 mm 1 mps 621 mmHg 93%
    01:00 +10°C° 0.1 mm 1 mps 621 mmHg 93%
    02:00 +10°C° 0.1 mm 1 mps 621 mmHg 93%
    03:00 +10°C° 0.1 mm 1 mps 620 mmHg 93%
    04:00 +11°C° 0 mm 1 mps 620 mmHg 91%
    05:00 +11°C° 0 mm 1 mps 620 mmHg 90%
    06:00 +12°C° 0 mm 1 mps 620 mmHg 89%
    07:00 +13°C° 0.3 mm 1 mps 621 mmHg 84%
    08:00 +14°C° 0.3 mm 1 mps 621 mmHg 80%
    09:00 +16°C° 0.3 mm 1 mps 622 mmHg 75%
    10:00 +16°C° 1 mm 2 mps 622 mmHg 75%
    11:00 +17°C° 1 mm 2 mps 621 mmHg 75%
    12:00 +17°C° 1 mm 2 mps 621 mmHg 75%
    13:00 +17°C° 1.2 mm 2 mps 621 mmHg 77%
    14:00 +16°C° 1.2 mm 2 mps 620 mmHg 78%
    15:00 +16°C° 1.2 mm 2 mps 620 mmHg 79%
    16:00 +16°C° 0.6 mm 2 mps 620 mmHg 82%
    17:00 +15°C° 0.6 mm 1 mps 619 mmHg 84%
    18:00 +14°C° 0.6 mm 1 mps 619 mmHg 87%
    19:00 +13°C° 0.5 mm 1 mps 618 mmHg 90%
    20:00 +12°C° 0.5 mm 1 mps 618 mmHg 92%
    21:00 +11°C° 0.5 mm 1 mps 618 mmHg 95%
    22:00 +11°C° 1.1 mm 1 mps 618 mmHg 95%
    23:00 +11°C° 1.1 mm 1 mps 618 mmHg 95%

    4 June, Thursday

    Time Temperature Precipitation Wind Pressure Humidity
    00:00 +11°C° 1.1 mm 1 mps 618 mmHg 95%
    01:00 +11°C° 0.1 mm 1 mps 618 mmHg 94%
    02:00 +10°C° 0.1 mm 1 mps 617 mmHg 93%
    03:00 +10°C° 0.1 mm 1 mps 617 mmHg 92%
    04:00 +11°C° 0 mm 1 mps 617 mmHg 91%
    05:00 +11°C° 0 mm 1 mps 618 mmHg 90%
    06:00 +12°C° 0 mm 1 mps 618 mmHg 89%
    07:00 +14°C° 0 mm 1 mps 619 mmHg 81%
    08:00 +15°C° 0 mm 2 mps 619 mmHg 73%
    09:00 +17°C° 0 mm 2 mps 620 mmHg 65%
    10:00 +17°C° 0.2 mm 2 mps 620 mmHg 62%
    11:00 +18°C° 0.2 mm 3 mps 620 mmHg 59%
    12:00 +19°C° 0.2 mm 3 mps 621 mmHg 55%
    13:00 +18°C° 0.4 mm 3 mps 620 mmHg 59%
    14:00 +18°C° 0.4 mm 3 mps 620 mmHg 63%
    15:00 +17°C° 0.4 mm 2 mps 620 mmHg 67%
    16:00 +17°C° 0.3 mm 2 mps 619 mmHg 71%
    17:00 +16°C° 0.3 mm 2 mps 619 mmHg 75%
    18:00 +15°C° 0.3 mm 2 mps 619 mmHg 79%
    19:00 +14°C° 0.5 mm 2 mps 619 mmHg 83%
    20:00 +13°C° 0.5 mm 2 mps 619 mmHg 88%
    21:00 +12°C° 0.5 mm 2 mps 619 mmHg 93%
    22:00 +10°C° 0.1 mm 2 mps 619 mmHg 92%
    23:00 +10°C° 0.1 mm 2 mps 618 mmHg 91%

    5 June, Friday

    Time Temperature Precipitation Wind Pressure Humidity
    00:00 +11°C° 0.1 mm 1 mps 618 mmHg 89%
    01:00 +10°C° 0 mm 2 mps 618 mmHg 88%
    02:00 +9°C° 0 mm 2 mps 618 mmHg 87%
    03:00 +9°C° 0 mm 2 mps 618 mmHg 85%
    04:00 +10°C° 0 mm 2 mps 618 mmHg 82%
    05:00 +12°C° 0 mm 1 mps 619 mmHg 79%
    06:00 +13°C° 0 mm 1 mps 619 mmHg 76%
    07:00 +14°C° 0.1 mm 1 mps 620 mmHg 70%
    08:00 +16°C° 0.1 mm 2 mps 620 mmHg 64%
    09:00 +17°C° 0.1 mm 2 mps 621 mmHg 58%
    10:00 +17°C° 0.5 mm 2 mps 620 mmHg 62%
    11:00 +17°C° 0.5 mm 3 mps 620 mmHg 66%
    12:00 +16°C° 0.5 mm 3 mps 620 mmHg 69%
    13:00 +17°C° 0.4 mm 3 mps 620 mmHg 68%
    14:00 +17°C° 0.4 mm 3 mps 620 mmHg 67%
    15:00 +17°C° 0.4 mm 3 mps 619 mmHg 65%
    16:00 +16°C° 0.3 mm 2 mps 619 mmHg 70%
    17:00 +15°C° 0.3 mm 2 mps 619 mmHg 75%
    18:00 +14°C° 0.3 mm 2 mps 618 mmHg 81%
    19:00 +13°C° 0.1 mm 2 mps 618 mmHg 83%
    20:00 +12°C° 0.1 mm 1 mps 618 mmHg 86%
    21:00 +10°C° 0.1 mm 1 mps 618 mmHg 89%
    22:00 +10°C° 0.2 mm 1 mps 618 mmHg 89%
    23:00 +11°C° 0.2 mm 1 mps 618 mmHg 89%
    Show more